Погода в Алмазаре

Узбекистан     40°58′04″N   68°51′13″E
темп.,
°C
ветер,
м/с
пор.,
м/с
влажн.,
%
обл.,
%
осадки,
мм/ч
давл.,
гПа
погр.,
м
27 февраля, сб
сб2723:00−4св2259100 0.0 103065
02:00−3всв1159100 0.0 102857
05:00−3всв1158100 0.0 102942
08:00−2вюв2256100 0.0 1029125
11:00+1юв4643100 0.0 1029576
14:00+5ю343664 0.0 1028919
17:00+5ююв234645 0.0 1028274
20:00+1вюв34600 0.0 103137
28 февраля, вс
вс2823:000вюв33600 0.0 103031
02:000в22580 0.0 102823
05:00−1в11560 0.0 102721
08:00+1св11530 0.0 102623
11:00+6ссз11400 0.0 1023338
14:00+9с11350 0.0 1021561
17:00+9ссз12410 0.0 1020273
20:00+5св235318 0.0 102131
1 марта, пн
пн123:00+5всв225659 0.0 102122
02:00+4в2258100 0.0 102122
05:00+3вюв2262100 0.0 102022
08:00+4в2258100 0.0 102124
11:00+10ююв233665 0.0 1020358
14:00+15ююв34230 0.0 1018528
17:00+16юв24290 0.0 1018110
20:00+10ююв34370 0.0 102061
2 марта, вт
вт223:00+8ююв45390 0.0 102184
02:00+8ююв5113867 0.0 1021178
05:00+8ю233983 0.0 102150
08:00+8юз1241100 0.0 102230
11:00+12ююз2330100 0.0 1022374
14:00+15ююв1226100 0.0 1020642
17:00+15сз2232100 0.0 1020154
20:00+12св2242100 0.0 102223
3 марта, ср
ср323:00+10с2352100 0.0 102245
02:00+9сз0255100 0.0 102141
05:00+9в1276100 0.3 102134
08:00+8ююв3586100 1.0 1022304
11:00+11юз2369100 1.1 1021607
14:00+11зсз2365100 0.9 1020901
17:00+9ююв3381100 3.7 1020304
20:00+7вюв248667 0.6 102091